Location: *
(40.7873°S, 98.7174°E)
Time: 21:30:14
(UTC+00:00)

Cosmos 192 - Pass Details

Date: 05 October 2022
Orbit: 701 x 711 km, 74.0° (Epoch: 05 December)

Event Time Altitude Azimuth Distance (km) Brightness Sun altitude
Rises 18:16:24 0° 186° (S) 3,140 8.4 -42.1°
Reaches altitude 10° 18:19:26 10° 167° (SSE) 2,215 7.5 -41.8°
Enters shadow 18:20:17 13° 159° (SSE) 2,008 7.3 -41.8°
